Tracking 32936 objects as of 16-Jan-2026
HD Live streaming from Space Station
objects crossing your sky now

COSMOS 1375

Track COSMOS 1375 now!
10-day predictions
COSMOS 1375 is classified as:


NORAD ID: 13259
Int'l Code: 1982-055A
Perigee: 931.9 km
Apogee: 976.0 km
Inclination: 65.8 °
Period: 104.0 minutes
Semi major axis: 7324 km
RCS: 0.955 m2 (medium)
Launch date: June 6, 1982
Source: Commonwealth of Independent States (former USSR) (CIS)
Launch site: PLESETSK MISSILE AND SPACE COMPLEX (PKMTR)
Your satellite tracking list
Your tracking list is empty




NASA's NSSDC Master Catalog

Two Line Element Set (TLE):
1 13259U 82055A   26015.61664885  .00000257  00000-0  29982-3 0  9995
2 13259  65.8313  67.8684 0030078 254.4133 105.3614 13.84835308192956
Source of the keplerian elements: AFSPC